Time,TemperatureF,DewpointF,PressureIn,WindDirection,WindDirectionDegrees,WindSpeedMPH,WindSpeedGustMPH,Humidity,HourlyPrecipIn,Conditions,Clouds,dailyrainin,SoftwareType,DateUTC
2013-04-06 00:03:00,43.2,33.4,30.02,NE,52,0.0,0.0,68,0.00,,---,0.00,VWS V14.01,2013-04-06 04:03:00,
2013-04-06 00:08:00,43.2,33.4,30.02,NE,48,0.0,0.0,68,0.00,,---,0.00,VWS V14.01,2013-04-06 04:08:00,
2013-04-06 00:13:00,43.2,33.0,30.02,NE,52,0.0,0.0,67,0.00,,---,0.00,VWS V14.01,2013-04-06 04:13:00,
2013-04-06 00:18:00,43.2,33.4,30.02,NW,312,1.0,5.0,68,0.00,,---,0.00,VWS V14.01,2013-04-06 04:18:00,
2013-04-06 00:23:00,43.2,33.4,30.02,NW,312,2.0,3.0,68,0.00,,---,0.00,VWS V14.01,2013-04-06 04:23:00,
2013-04-06 00:28:00,43.5,33.3,30.02,NW,312,0.0,3.0,67,0.00,,---,0.00,VWS V14.01,2013-04-06 04:28:00,
2013-04-06 00:33:00,43.9,32.9,30.01,NW,306,0.0,0.0,65,0.00,,---,0.00,VWS V14.01,2013-04-06 04:33:00,
2013-04-06 00:38:00,44.3,32.9,30.01,NW,312,0.0,2.0,64,0.00,,---,0.00,VWS V14.01,2013-04-06 04:38:00,
2013-04-06 00:43:00,44.6,33.2,30.01,NW,312,0.0,0.0,64,0.00,,---,0.00,VWS V14.01,2013-04-06 04:43:00,
2013-04-06 00:48:00,44.6,33.2,30.02,NW,312,0.0,0.0,64,0.00,,---,0.00,VWS V14.01,2013-04-06 04:48:00,
2013-04-06 00:53:00,44.6,33.2,30.02,NW,312,0.0,0.0,64,0.00,,---,0.00,VWS V14.01,2013-04-06 04:53:00,
2013-04-06 00:58:00,44.3,32.9,30.02,NW,312,0.0,0.0,64,0.00,,---,0.00,VWS V14.01,2013-04-06 04:58:00,
2013-04-06 01:03:00,44.2,33.2,30.02,NW,312,0.0,0.0,65,0.00,,---,0.00,VWS V14.01,2013-04-06 05:03:00,
2013-04-06 01:08:00,43.9,33.3,30.02,NW,312,0.0,0.0,66,0.00,,---,0.00,VWS V14.01,2013-04-06 05:08:00,
2013-04-06 01:13:00,43.5,32.5,30.02,NW,312,0.0,0.0,65,0.00,,---,0.00,VWS V14.01,2013-04-06 05:13:00,
2013-04-06 01:19:00,43.5,32.9,30.03,NW,312,0.0,0.0,66,0.00,,---,0.00,VWS V14.01,2013-04-06 05:19:00,
2013-04-06 01:24:00,43.3,32.3,30.03,NW,312,0.0,0.0,65,0.00,,---,0.00,VWS V14.01,2013-04-06 05:24:00,
2013-04-06 01:29:00,43.3,32.3,30.03,NW,312,0.0,0.0,65,0.00,,---,0.00,VWS V14.01,2013-04-06 05:29:00,
2013-04-06 01:34:00,43.3,32.3,30.02,NW,312,0.0,0.0,65,0.00,,---,0.00,VWS V14.01,2013-04-06 05:34:00,
2013-04-06 01:39:00,43.5,32.9,30.02,NW,312,0.0,0.0,66,0.00,,---,0.00,VWS V14.01,2013-04-06 05:39:00,
2013-04-06 01:44:00,43.3,32.7,30.02,NW,312,0.0,0.0,66,0.00,,---,0.00,VWS V14.01,2013-04-06 05:44:00,
2013-04-06 01:49:00,43.3,32.7,30.02,NW,312,0.0,0.0,66,0.00,,---,0.00,VWS V14.01,2013-04-06 05:49:00,
2013-04-06 01:54:00,43.2,32.6,30.02,NW,312,0.0,0.0,66,0.00,,---,0.00,VWS V14.01,2013-04-06 05:54:00,
2013-04-06 01:59:00,43.1,32.9,30.02,NW,312,0.0,0.0,67,0.00,,---,0.00,VWS V14.01,2013-04-06 05:59:00,
2013-04-06 02:04:00,42.8,33.0,30.03,NW,312,0.0,0.0,68,0.00,,---,0.00,VWS V14.01,2013-04-06 06:04:00,
2013-04-06 02:09:00,42.5,32.7,30.03,NW,312,0.0,0.0,68,0.00,,---,0.00,VWS V14.01,2013-04-06 06:09:00,
2013-04-06 02:14:00,42.2,32.4,30.03,NW,312,0.0,0.0,68,0.00,,---,0.00,VWS V14.01,2013-04-06 06:14:00,
2013-04-06 02:19:00,41.9,32.5,30.03,NW,312,0.0,0.0,69,0.00,,---,0.00,VWS V14.01,2013-04-06 06:19:00,
2013-04-06 02:24:00,41.6,32.2,30.03,NW,312,0.0,0.0,69,0.00,,---,0.00,VWS V14.01,2013-04-06 06:24:00,
2013-04-06 02:30:00,41.5,32.5,30.03,NW,312,0.0,0.0,70,0.00,,---,0.00,VWS V14.01,2013-04-06 06:30:00,
2013-04-06 02:34:00,41.5,32.8,30.03,NW,306,0.0,0.0,71,0.00,,---,0.00,VWS V14.01,2013-04-06 06:34:00,
2013-04-06 02:39:00,41.1,32.4,30.03,NW,312,0.0,0.0,71,0.00,,---,0.00,VWS V14.01,2013-04-06 06:39:00,
2013-04-06 02:45:00,40.8,32.5,30.03,NW,312,0.0,0.0,72,0.00,,---,0.00,VWS V14.01,2013-04-06 06:45:00,
2013-04-06 02:50:00,40.5,32.9,30.03,NW,312,0.0,0.0,74,0.00,,---,0.00,VWS V14.01,2013-04-06 06:50:00,
2013-04-06 02:55:00,40.1,32.5,30.03,NW,312,0.0,0.0,74,0.00,,---,0.00,VWS V14.01,2013-04-06 06:55:00,
2013-04-06 03:00:00,39.8,32.5,30.03,NW,312,0.0,0.0,75,0.00,,---,0.00,VWS V14.01,2013-04-06 07:00:00,
2013-04-06 03:05:00,39.6,32.3,30.03,NW,312,0.0,0.0,75,0.00,,---,0.00,VWS V14.01,2013-04-06 07:05:00,
2013-04-06 03:10:00,39.5,32.2,30.03,NW,312,0.0,0.0,75,0.00,,---,0.00,VWS V14.01,2013-04-06 07:10:00,
2013-04-06 03:15:00,39.2,32.3,30.03,NW,312,0.0,0.0,76,0.00,,---,0.00,VWS V14.01,2013-04-06 07:15:00,
2013-04-06 03:20:00,39.1,32.2,30.03,NW,312,0.0,0.0,76,0.00,,---,0.00,VWS V14.01,2013-04-06 07:20:00,
2013-04-06 03:25:00,38.8,32.2,30.03,NW,312,0.0,0.0,77,0.00,,---,0.00,VWS V14.01,2013-04-06 07:25:00,
2013-04-06 03:30:00,38.3,32.0,30.03,NW,312,0.0,0.0,78,0.00,,---,0.00,VWS V14.01,2013-04-06 07:30:00,
2013-04-06 03:35:00,38.2,32.3,30.03,NW,312,0.0,0.0,79,0.00,,---,0.00,VWS V14.01,2013-04-06 07:35:00,
2013-04-06 03:40:00,37.9,32.0,30.03,NW,312,0.0,0.0,79,0.00,,---,0.00,VWS V14.01,2013-04-06 07:40:00,
2013-04-06 03:45:00,37.8,31.9,30.03,NW,312,0.0,0.0,79,0.00,,---,0.00,VWS V14.01,2013-04-06 07:45:00,
2013-04-06 03:50:00,37.3,31.7,30.03,NW,312,0.0,0.0,80,0.00,,---,0.00,VWS V14.01,2013-04-06 07:50:00,
2013-04-06 03:55:00,37.0,31.7,30.03,NW,312,0.0,0.0,81,0.00,,---,0.00,VWS V14.01,2013-04-06 07:55:00,
2013-04-06 04:00:00,36.9,31.9,30.03,NW,312,0.0,0.0,82,0.00,,---,0.00,VWS V14.01,2013-04-06 08:00:00,
2013-04-06 04:05:00,36.8,31.8,30.04,NW,312,0.0,0.0,82,0.00,,---,0.00,VWS V14.01,2013-04-06 08:05:00,
2013-04-06 04:10:00,36.5,31.5,30.04,NW,312,0.0,0.0,82,0.00,,---,0.00,VWS V14.01,2013-04-06 08:10:00,
2013-04-06 04:15:00,36.5,31.8,30.04,NW,312,0.0,0.0,83,0.00,,---,0.00,VWS V14.01,2013-04-06 08:15:00,
2013-04-06 04:20:00,36.2,31.5,30.05,NW,312,0.0,0.0,83,0.00,,---,0.00,VWS V14.01,2013-04-06 08:20:00,
2013-04-06 04:25:00,36.0,31.4,30.05,NW,312,0.0,0.0,83,0.00,,---,0.00,VWS V14.01,2013-04-06 08:25:00,
2013-04-06 04:30:00,35.9,31.2,30.05,NW,312,0.0,0.0,83,0.00,,---,0.00,VWS V14.01,2013-04-06 08:30:00,
2013-04-06 04:35:00,35.9,31.5,30.05,NW,312,0.0,0.0,84,0.00,,---,0.00,VWS V14.01,2013-04-06 08:35:00,
2013-04-06 04:40:00,35.8,31.5,30.05,NW,317,0.0,2.0,84,0.00,,---,0.00,VWS V14.01,2013-04-06 08:40:00,
2013-04-06 04:45:00,35.6,31.2,30.05,North,353,0.0,0.0,84,0.00,,---,0.00,VWS V14.01,2013-04-06 08:45:00,
2013-04-06 04:50:00,35.6,31.2,30.04,North,353,0.0,0.0,84,0.00,,---,0.00,VWS V14.01,2013-04-06 08:50:00,
2013-04-06 04:55:00,35.5,31.1,30.04,North,353,0.0,0.0,84,0.00,,---,0.00,VWS V14.01,2013-04-06 08:55:00,
2013-04-06 05:00:00,35.3,31.0,30.04,NNW,331,0.0,4.0,84,0.00,,---,0.00,VWS V14.01,2013-04-06 09:00:00,
2013-04-06 05:05:00,35.3,31.0,30.04,North,2,0.0,5.0,84,0.00,,---,0.00,VWS V14.01,2013-04-06 09:05:00,
2013-04-06 05:10:00,35.2,30.9,30.04,North,2,0.0,5.0,84,0.00,,---,0.00,VWS V14.01,2013-04-06 09:10:00,
2013-04-06 05:15:00,35.2,31.1,30.04,North,2,0.0,3.0,85,0.00,,---,0.00,VWS V14.01,2013-04-06 09:15:00,
2013-04-06 05:20:00,35.2,31.1,30.06,North,2,0.0,3.0,85,0.00,,---,0.00,VWS V14.01,2013-04-06 09:20:00,
2013-04-06 05:25:00,35.3,31.2,30.06,North,1,0.0,0.0,85,0.00,,---,0.00,VWS V14.01,2013-04-06 09:25:00,
2013-04-06 05:30:00,35.3,31.0,30.06,North,2,0.0,0.0,84,0.00,,---,0.00,VWS V14.01,2013-04-06 09:30:00,
2013-04-06 05:35:00,35.5,31.1,30.07,North,2,0.0,0.0,84,0.00,,---,0.00,VWS V14.01,2013-04-06 09:35:00,
2013-04-06 05:40:00,35.5,31.1,30.07,North,2,0.0,0.0,84,0.00,,---,0.00,VWS V14.01,2013-04-06 09:40:00,
2013-04-06 05:45:00,35.5,31.1,30.07,North,2,0.0,0.0,84,0.00,,---,0.00,VWS V14.01,2013-04-06 09:45:00,
2013-04-06 05:50:00,35.6,31.2,30.07,North,2,0.0,0.0,84,0.00,,---,0.00,VWS V14.01,2013-04-06 09:50:00,
2013-04-06 05:55:00,35.6,31.2,30.07,North,2,0.0,0.0,84,0.00,,---,0.00,VWS V14.01,2013-04-06 09:55:00,
2013-04-06 06:00:00,35.5,31.1,30.07,North,2,0.0,0.0,84,0.00,,---,0.00,VWS V14.01,2013-04-06 10:00:00,
2013-04-06 06:05:00,35.5,31.1,30.08,North,2,0.0,0.0,84,0.00,,---,0.00,VWS V14.01,2013-04-06 10:05:00,
2013-04-06 06:10:00,35.5,31.1,30.08,North,2,0.0,0.0,84,0.00,,---,0.00,VWS V14.01,2013-04-06 10:10:00,
2013-04-06 06:15:00,35.5,31.1,30.08,North,2,0.0,0.0,84,0.00,,---,0.00,VWS V14.01,2013-04-06 10:15:00,
2013-04-06 06:20:00,35.5,31.1,30.09,North,2,0.0,0.0,84,0.00,,---,0.00,VWS V14.01,2013-04-06 10:20:00,
2013-04-06 06:25:00,35.3,31.0,30.09,North,2,0.0,0.0,84,0.00,,---,0.00,VWS V14.01,2013-04-06 10:25:00,
2013-04-06 06:30:00,35.2,30.9,30.09,North,2,0.0,0.0,84,0.00,,---,0.00,VWS V14.01,2013-04-06 10:30:00,
2013-04-06 06:31:00,34.7,30.4,30.14,North,2,0.0,0.0,84,0.00,,---,0.00,VWS V14.01,2013-04-06 10:31:00,
2013-04-06 06:33:00,34.7,30.4,30.14,North,2,0.0,0.0,84,0.00,,---,0.00,VWS V14.01,2013-04-06 10:33:00,
2013-04-06 06:34:00,34.7,30.4,30.14,North,2,0.0,0.0,84,0.00,,---,0.00,VWS V14.01,2013-04-06 10:34:00,
2013-04-06 06:35:00,35.0,30.7,30.09,North,2,0.0,0.0,84,0.00,,---,0.00,VWS V14.01,2013-04-06 10:35:00,
2013-04-06 06:40:00,34.9,30.6,30.09,North,2,0.0,0.0,84,0.00,,---,0.00,VWS V14.01,2013-04-06 10:40:00,
2013-04-06 06:45:00,34.9,30.6,30.09,North,2,0.0,0.0,84,0.00,,---,0.00,VWS V14.01,2013-04-06 10:45:00,
2013-04-06 06:50:00,34.9,30.6,30.10,North,2,0.0,0.0,84,0.00,,---,0.00,VWS V14.01,2013-04-06 10:50:00,
2013-04-06 06:55:00,34.9,30.6,30.10,North,2,0.0,0.0,84,0.00,,---,0.00,VWS V14.01,2013-04-06 10:55:00,
2013-04-06 07:00:00,34.9,30.6,30.10,North,2,0.0,0.0,84,0.00,,---,0.00,VWS V14.01,2013-04-06 11:00:00,
2013-04-06 07:06:00,34.9,30.6,30.12,North,2,0.0,0.0,84,0.00,,---,0.00,VWS V14.01,2013-04-06 11:06:00,
2013-04-06 07:11:00,34.7,30.4,30.12,North,2,0.0,0.0,84,0.00,,---,0.00,VWS V14.01,2013-04-06 11:11:00,
2013-04-06 07:16:00,34.7,30.4,30.12,North,2,0.0,0.0,84,0.00,,---,0.00,VWS V14.01,2013-04-06 11:16:00,
2013-04-06 07:21:00,34.6,30.3,30.13,North,2,0.0,0.0,84,0.00,,---,0.00,VWS V14.01,2013-04-06 11:21:00,
2013-04-06 07:26:00,34.6,30.3,30.13,North,2,0.0,0.0,84,0.00,,---,0.00,VWS V14.01,2013-04-06 11:26:00,
2013-04-06 07:31:00,34.7,30.4,30.13,North,2,0.0,0.0,84,0.00,,---,0.00,VWS V14.01,2013-04-06 11:31:00,
2013-04-06 07:36:00,34.7,30.4,30.14,North,2,0.0,0.0,84,0.00,,---,0.00,VWS V14.01,2013-04-06 11:36:00,
2013-04-06 07:41:00,34.9,30.6,30.14,North,2,0.0,0.0,84,0.00,,---,0.00,VWS V14.01,2013-04-06 11:41:00,
2013-04-06 07:46:00,34.9,30.6,30.14,North,2,0.0,0.0,84,0.00,,---,0.00,VWS V14.01,2013-04-06 11:46:00,
2013-04-06 07:51:00,34.9,30.3,30.14,North,1,0.0,0.0,83,0.00,,---,0.00,VWS V14.01,2013-04-06 11:51:00,
2013-04-06 07:56:00,35.0,30.4,30.14,North,2,0.0,0.0,83,0.00,,---,0.00,VWS V14.01,2013-04-06 11:56:00,
2013-04-06 08:01:00,35.3,30.7,30.15,North,2,0.0,0.0,83,0.00,,---,0.00,VWS V14.01,2013-04-06 12:01:00,
2013-04-06 08:06:00,35.8,31.1,30.15,North,2,0.0,0.0,83,0.00,,---,0.00,VWS V14.01,2013-04-06 12:06:00,
2013-04-06 08:11:00,36.2,31.5,30.15,North,2,0.0,0.0,83,0.00,,---,0.00,VWS V14.01,2013-04-06 12:11:00,
2013-04-06 08:17:00,36.6,31.9,30.16,North,2,0.0,0.0,83,0.00,,---,0.00,VWS V14.01,2013-04-06 12:17:00,
2013-04-06 08:22:00,37.0,32.0,30.16,North,2,0.0,0.0,82,0.00,,---,0.00,VWS V14.01,2013-04-06 12:22:00,
2013-04-06 08:27:00,37.6,32.3,30.16,North,2,0.0,0.0,81,0.00,,---,0.00,VWS V14.01,2013-04-06 12:27:00,
2013-04-06 08:32:00,38.3,32.7,30.17,North,2,0.0,0.0,80,0.00,,---,0.00,VWS V14.01,2013-04-06 12:32:00,
2013-04-06 08:37:00,39.1,33.8,30.17,North,2,0.0,0.0,81,0.00,,---,0.00,VWS V14.01,2013-04-06 12:37:00,
2013-04-06 08:42:00,39.6,34.6,30.17,North,2,0.0,0.0,82,0.00,,---,0.00,VWS V14.01,2013-04-06 12:42:00,
2013-04-06 08:47:00,40.5,35.5,30.16,North,2,0.0,0.0,82,0.00,,---,0.00,VWS V14.01,2013-04-06 12:47:00,
2013-04-06 08:52:00,41.2,36.1,30.16,North,2,0.0,0.0,82,0.00,,---,0.00,VWS V14.01,2013-04-06 12:52:00,
2013-04-06 08:57:00,42.1,36.7,30.16,North,2,0.0,0.0,81,0.00,,---,0.00,VWS V14.01,2013-04-06 12:57:00,
2013-04-06 09:02:00,42.9,34.8,30.16,North,2,0.0,0.0,73,0.00,,---,0.00,VWS V14.01,2013-04-06 13:02:00,
2013-04-06 09:07:00,44.1,35.0,30.16,North,2,0.0,0.0,70,0.00,,---,0.00,VWS V14.01,2013-04-06 13:07:00,
2013-04-06 09:12:00,45.4,35.5,30.16,North,2,0.0,0.0,68,0.00,,---,0.00,VWS V14.01,2013-04-06 13:12:00,
2013-04-06 09:17:00,46.4,35.3,30.16,North,2,0.0,0.0,65,0.00,,---,0.00,VWS V14.01,2013-04-06 13:17:00,
2013-04-06 09:22:00,47.7,33.7,30.16,North,2,0.0,0.0,58,0.00,,---,0.00,VWS V14.01,2013-04-06 13:22:00,
2013-04-06 09:27:00,48.8,32.9,30.16,North,0,0.0,0.0,54,0.00,,---,0.00,VWS V14.01,2013-04-06 13:27:00,
2013-04-06 09:32:00,49.8,32.9,30.14,East,82,0.0,0.0,52,0.00,,---,0.00,VWS V14.01,2013-04-06 13:32:00,
2013-04-06 09:37:00,50.8,32.8,30.14,East,82,0.0,0.0,50,0.00,,---,0.00,VWS V14.01,2013-04-06 13:37:00,
2013-04-06 09:42:00,51.7,32.7,30.14,East,82,0.0,0.0,48,0.00,,---,0.00,VWS V14.01,2013-04-06 13:42:00,
2013-04-06 09:47:00,52.5,31.8,30.14,East,87,0.0,0.0,45,0.00,,---,0.00,VWS V14.01,2013-04-06 13:47:00,
2013-04-06 09:52:00,53.2,33.0,30.14,East,87,0.0,0.0,46,0.00,,---,0.00,VWS V14.01,2013-04-06 13:52:00,
2013-04-06 09:57:00,53.9,33.1,30.14,East,87,0.0,0.0,45,0.00,,---,0.00,VWS V14.01,2013-04-06 13:57:00,
2013-04-06 10:02:00,54.5,31.3,30.14,East,83,3.0,3.0,41,0.00,,---,0.00,VWS V14.01,2013-04-06 14:02:00,
2013-04-06 10:07:00,55.0,32.3,30.14,ESE,120,0.0,6.0,42,0.00,,---,0.00,VWS V14.01,2013-04-06 14:07:00,
2013-04-06 10:12:00,55.1,30.6,30.14,SSE,166,4.0,6.0,39,0.00,,---,0.00,VWS V14.01,2013-04-06 14:12:00,
2013-04-06 10:17:00,55.3,30.1,30.15,SE,144,0.0,3.0,38,0.00,,---,0.00,VWS V14.01,2013-04-06 14:17:00,
2013-04-06 10:22:00,55.3,30.1,30.15,East,93,0.0,5.0,38,0.00,,---,0.00,VWS V14.01,2013-04-06 14:22:00,
2013-04-06 10:27:00,55.3,30.8,30.15,SSE,149,0.0,7.0,39,0.00,,---,0.00,VWS V14.01,2013-04-06 14:27:00,
2013-04-06 10:32:00,55.6,30.4,30.14,SSE,161,0.0,7.0,38,0.00,,---,0.00,VWS V14.01,2013-04-06 14:32:00,
2013-04-06 10:37:00,56.0,30.8,30.14,SSE,161,0.0,0.0,38,0.00,,---,0.00,VWS V14.01,2013-04-06 14:37:00,
2013-04-06 10:42:00,56.7,31.4,30.14,SSE,161,0.0,0.0,38,0.00,,---,0.00,VWS V14.01,2013-04-06 14:42:00,
2013-04-06 10:47:00,56.9,30.2,30.14,SSE,161,0.0,0.0,36,0.00,,---,0.00,VWS V14.01,2013-04-06 14:47:00,
2013-04-06 10:52:00,57.0,29.6,30.14,SSW,200,0.0,0.0,35,0.00,,---,0.00,VWS V14.01,2013-04-06 14:52:00,
2013-04-06 10:57:00,57.3,31.3,30.14,South,190,0.0,1.0,37,0.00,,---,0.00,VWS V14.01,2013-04-06 14:57:00,
2013-04-06 11:02:00,57.5,31.5,30.13,ESE,103,0.0,8.0,37,0.00,,---,0.00,VWS V14.01,2013-04-06 15:02:00,
2013-04-06 11:07:00,57.8,33.0,30.13,SE,144,5.0,5.0,39,0.00,,---,0.00,VWS V14.01,2013-04-06 15:07:00,
2013-04-06 11:12:00,57.6,30.2,30.13,ESE,117,0.0,0.0,35,0.00,,---,0.00,VWS V14.01,2013-04-06 15:12:00,
2013-04-06 11:17:00,57.8,31.0,30.13,East,87,4.0,7.0,36,0.00,,---,0.00,VWS V14.01,2013-04-06 15:17:00,
2013-04-06 11:22:00,57.6,31.5,30.13,SSE,149,0.0,7.0,37,0.00,,---,0.00,VWS V14.01,2013-04-06 15:22:00,
2013-04-06 11:27:00,58.0,31.2,30.13,WSW,251,0.0,0.0,36,0.00,,---,0.00,VWS V14.01,2013-04-06 15:27:00,
2013-04-06 11:32:00,58.4,31.6,30.14,South,173,0.0,0.0,36,0.00,,---,0.00,VWS V14.01,2013-04-06 15:32:00,
2013-04-06 11:37:00,58.6,31.0,30.14,SE,128,5.0,5.0,35,0.00,,---,0.00,VWS V14.01,2013-04-06 15:37:00,
2013-04-06 11:42:00,58.4,29.4,30.14,SSE,152,3.0,7.0,33,0.00,,---,0.00,VWS V14.01,2013-04-06 15:42:00,
2013-04-06 11:47:00,58.6,31.0,30.13,WNW,285,0.0,4.0,35,0.00,,---,0.00,VWS V14.01,2013-04-06 15:47:00,
2013-04-06 11:52:00,58.9,31.3,30.13,WNW,286,0.0,0.0,35,0.00,,---,0.00,VWS V14.01,2013-04-06 15:52:00,
2013-04-06 11:57:00,59.3,30.2,30.13,East,91,0.0,5.0,33,0.00,,---,0.00,VWS V14.01,2013-04-06 15:57:00,
2013-04-06 12:02:00,59.8,32.1,30.13,East,91,0.0,0.0,35,0.00,,---,0.00,VWS V14.01,2013-04-06 16:02:00,
2013-04-06 12:07:00,60.2,31.8,30.13,ESE,117,6.0,6.0,34,0.00,,---,0.00,VWS V14.01,2013-04-06 16:07:00,
2013-04-06 12:12:00,60.4,29.6,30.13,East,86,0.0,0.0,31,0.00,,---,0.00,VWS V14.01,2013-04-06 16:12:00,
2013-04-06 12:17:00,60.2,30.2,30.12,SSE,156,0.0,6.0,32,0.00,,---,0.00,VWS V14.01,2013-04-06 16:17:00,
2013-04-06 12:22:00,60.4,31.2,30.12,East,100,0.0,0.0,33,0.00,,---,0.00,VWS V14.01,2013-04-06 16:22:00,
2013-04-06 12:27:00,60.4,29.6,30.12,East,101,0.0,5.0,31,0.00,,---,0.00,VWS V14.01,2013-04-06 16:27:00,
2013-04-06 12:32:00,60.4,29.6,30.12,East,89,0.0,0.0,31,0.00,,---,0.00,VWS V14.01,2013-04-06 16:32:00,
2013-04-06 12:37:00,60.2,29.5,30.12,East,86,0.0,5.0,31,0.00,,---,0.00,VWS V14.01,2013-04-06 16:37:00,
2013-04-06 12:42:00,60.1,29.4,30.12,ESE,108,0.0,0.0,31,0.00,,---,0.00,VWS V14.01,2013-04-06 16:42:00,
2013-04-06 12:47:00,60.2,29.5,30.12,ENE,70,2.0,7.0,31,0.00,,---,0.00,VWS V14.01,2013-04-06 16:47:00,
2013-04-06 12:52:00,59.8,29.1,30.12,East,86,2.0,6.0,31,0.00,,---,0.00,VWS V14.01,2013-04-06 16:52:00,
2013-04-06 12:57:00,59.5,29.6,30.12,East,82,0.0,7.0,32,0.00,,---,0.00,VWS V14.01,2013-04-06 16:57:00,
2013-04-06 13:02:00,59.8,30.7,30.12,ESE,106,3.0,3.0,33,0.00,,---,0.00,VWS V14.01,2013-04-06 17:02:00,
2013-04-06 13:07:00,60.1,28.6,30.12,East,89,0.0,6.0,30,0.00,,---,0.00,VWS V14.01,2013-04-06 17:07:00,
2013-04-06 13:12:00,60.2,28.7,30.12,East,96,0.0,0.0,30,0.00,,---,0.00,VWS V14.01,2013-04-06 17:12:00,
2013-04-06 13:17:00,61.0,31.0,30.11,East,83,7.0,7.0,32,0.00,,---,0.00,VWS V14.01,2013-04-06 17:17:00,
2013-04-06 13:22:00,60.9,27.6,30.11,East,94,0.0,0.0,28,0.00,,---,0.00,VWS V14.01,2013-04-06 17:22:00,
2013-04-06 13:27:00,61.5,30.6,30.11,SE,138,1.0,6.0,31,0.00,,---,0.00,VWS V14.01,2013-04-06 17:27:00,
2013-04-06 13:32:00,62.0,28.5,30.11,SE,128,0.0,3.0,28,0.00,,---,0.00,VWS V14.01,2013-04-06 17:32:00,
2013-04-06 13:37:00,62.1,28.6,30.11,SE,135,0.0,8.0,28,0.00,,---,0.00,VWS V14.01,2013-04-06 17:37:00,
2013-04-06 13:42:00,62.1,28.6,30.11,East,100,1.0,3.0,28,0.00,,---,0.00,VWS V14.01,2013-04-06 17:42:00,
2013-04-06 13:47:00,61.8,30.1,30.10,East,93,1.0,6.0,30,0.00,,---,0.00,VWS V14.01,2013-04-06 17:47:00,
2013-04-06 13:52:00,61.6,30.7,30.10,East,100,0.0,1.0,31,0.00,,---,0.00,VWS V14.01,2013-04-06 17:52:00,
2013-04-06 13:57:00,61.6,29.1,30.10,ENE,59,0.0,5.0,29,0.00,,---,0.00,VWS V14.01,2013-04-06 17:57:00,
2013-04-06 14:02:00,61.6,29.1,30.10,SE,125,0.0,0.0,29,0.00,,---,0.00,VWS V14.01,2013-04-06 18:02:00,
2013-04-06 14:07:00,62.1,29.5,30.10,SSE,168,0.0,7.0,29,0.00,,---,0.00,VWS V14.01,2013-04-06 18:07:00,
2013-04-06 14:12:00,62.4,31.4,30.10,East,97,0.0,0.0,31,0.00,,---,0.00,VWS V14.01,2013-04-06 18:12:00,
2013-04-06 14:17:00,62.4,29.8,30.10,ESE,113,0.0,8.0,29,0.00,,---,0.00,VWS V14.01,2013-04-06 18:17:00,
2013-04-06 14:23:00,62.6,32.3,30.10,SE,131,0.0,0.0,32,0.00,,---,0.00,VWS V14.01,2013-04-06 18:23:00,
2013-04-06 14:27:00,62.7,30.8,30.10,East,101,3.0,7.0,30,0.00,,---,0.00,VWS V14.01,2013-04-06 18:27:00,
2013-04-06 14:32:00,62.9,31.8,30.10,East,97,0.0,0.0,31,0.00,,---,0.00,VWS V14.01,2013-04-06 18:32:00,
2013-04-06 14:37:00,62.7,30.8,30.10,SSE,154,4.0,7.0,30,0.00,,---,0.00,VWS V14.01,2013-04-06 18:37:00,
2013-04-06 14:42:00,62.9,31.0,30.10,East,100,0.0,0.0,30,0.00,,---,0.00,VWS V14.01,2013-04-06 18:42:00,
2013-04-06 14:47:00,63.1,31.2,30.10,ESE,115,0.0,8.0,30,0.00,,---,0.00,VWS V14.01,2013-04-06 18:47:00,
2013-04-06 14:53:00,63.1,34.3,30.10,SE,142,6.0,6.0,34,0.00,,---,0.00,VWS V14.01,2013-04-06 18:53:00,
2013-04-06 14:58:00,63.1,30.4,30.10,East,100,0.0,8.0,29,0.00,,---,0.00,VWS V14.01,2013-04-06 18:58:00,
2013-04-06 15:03:00,62.7,29.1,30.10,SSE,155,0.0,0.0,28,0.00,,---,0.00,VWS V14.01,2013-04-06 19:03:00,
2013-04-06 15:08:00,63.1,31.2,30.10,ESE,110,1.0,7.0,30,0.00,,---,0.00,VWS V14.01,2013-04-06 19:08:00,
2013-04-06 15:13:00,62.6,31.6,30.10,ESE,121,0.0,4.0,31,0.00,,---,0.00,VWS V14.01,2013-04-06 19:13:00,
2013-04-06 15:18:00,62.7,29.1,30.10,East,86,0.0,8.0,28,0.00,,---,0.00,VWS V14.01,2013-04-06 19:18:00,
2013-04-06 15:23:00,62.4,29.8,30.10,SE,146,0.0,0.0,29,0.00,,---,0.00,VWS V14.01,2013-04-06 19:23:00,
2013-04-06 15:28:00,62.9,31.8,30.10,East,101,0.0,3.0,31,0.00,,---,0.00,VWS V14.01,2013-04-06 19:28:00,
2013-04-06 15:33:00,62.7,30.8,30.09,East,87,0.0,0.0,30,0.00,,---,0.00,VWS V14.01,2013-04-06 19:33:00,
2013-04-06 15:38:00,62.6,31.6,30.09,ESE,106,2.0,8.0,31,0.00,,---,0.00,VWS V14.01,2013-04-06 19:38:00,
2013-04-06 15:43:00,62.6,30.8,30.09,East,89,0.0,5.0,30,0.00,,---,0.00,VWS V14.01,2013-04-06 19:43:00,
2013-04-06 15:48:00,62.6,30.8,30.09,SE,131,0.0,7.0,30,0.00,,---,0.00,VWS V14.01,2013-04-06 19:48:00,
2013-04-06 15:53:00,62.7,31.6,30.09,SSE,161,6.0,6.0,31,0.00,,---,0.00,VWS V14.01,2013-04-06 19:53:00,
2013-04-06 15:58:00,62.7,30.8,30.09,ENE,62,6.0,7.0,30,0.00,,---,0.00,VWS V14.01,2013-04-06 19:58:00,
2013-04-06 16:03:00,62.6,31.6,30.08,SE,124,0.0,0.0,31,0.00,,---,0.00,VWS V14.01,2013-04-06 20:03:00,
2013-04-06 16:08:00,62.4,31.4,30.08,SE,124,0.0,10.0,31,0.00,,---,0.00,VWS V14.01,2013-04-06 20:08:00,
2013-04-06 16:13:00,62.6,31.6,30.08,SSE,151,0.0,0.0,31,0.00,,---,0.00,VWS V14.01,2013-04-06 20:13:00,
2013-04-06 16:18:00,62.6,30.8,30.08,ESE,103,0.0,3.0,30,0.00,,---,0.00,VWS V14.01,2013-04-06 20:18:00,
2013-04-06 16:23:00,62.6,31.6,30.08,SSE,162,0.0,6.0,31,0.00,,---,0.00,VWS V14.01,2013-04-06 20:23:00,
2013-04-06 16:28:00,62.4,31.4,30.08,ESE,113,0.0,11.0,31,0.00,,---,0.00,VWS V14.01,2013-04-06 20:28:00,
2013-04-06 16:33:00,62.3,31.3,30.08,ESE,113,0.0,1.0,31,0.00,,---,0.00,VWS V14.01,2013-04-06 20:33:00,
2013-04-06 16:38:00,62.3,30.5,30.08,SE,139,11.0,11.0,30,0.00,,---,0.00,VWS V14.01,2013-04-06 20:38:00,
2013-04-06 16:43:00,62.0,31.8,30.08,SE,146,0.0,0.0,32,0.00,,---,0.00,VWS V14.01,2013-04-06 20:43:00,
2013-04-06 16:48:00,61.6,30.7,30.08,SSE,152,8.0,8.0,31,0.00,,---,0.00,VWS V14.01,2013-04-06 20:48:00,
2013-04-06 16:53:00,61.2,30.4,30.08,SSE,149,0.0,7.0,31,0.00,,---,0.00,VWS V14.01,2013-04-06 20:53:00,
2013-04-06 16:58:00,60.9,30.9,30.08,SSE,148,0.0,7.0,32,0.00,,---,0.00,VWS V14.01,2013-04-06 20:58:00,
2013-04-06 17:03:00,60.7,30.7,30.08,SE,138,0.0,1.0,32,0.00,,---,0.00,VWS V14.01,2013-04-06 21:03:00,
2013-04-06 17:08:00,60.7,31.5,30.08,ESE,117,0.0,1.0,33,0.00,,---,0.00,VWS V14.01,2013-04-06 21:08:00,
2013-04-06 17:13:00,60.7,31.5,30.08,East,101,0.0,0.0,33,0.00,,---,0.00,VWS V14.01,2013-04-06 21:13:00,
2013-04-06 17:18:00,60.5,30.5,30.08,East,100,0.0,3.0,32,0.00,,---,0.00,VWS V14.01,2013-04-06 21:18:00,
2013-04-06 17:23:00,60.4,31.2,30.08,ESE,111,0.0,0.0,33,0.00,,---,0.00,VWS V14.01,2013-04-06 21:23:00,
2013-04-06 17:28:00,60.5,30.5,30.08,ESE,111,0.0,0.0,32,0.00,,---,0.00,VWS V14.01,2013-04-06 21:28:00,
2013-04-06 17:33:00,60.7,31.5,30.09,ESE,111,0.0,0.0,33,0.00,,---,0.00,VWS V14.01,2013-04-06 21:33:00,
2013-04-06 17:38:00,60.9,30.9,30.09,SSE,155,0.0,3.0,32,0.00,,---,0.00,VWS V14.01,2013-04-06 21:38:00,
2013-04-06 17:43:00,60.9,30.1,30.09,South,169,0.0,0.0,31,0.00,,---,0.00,VWS V14.01,2013-04-06 21:43:00,
2013-04-06 17:48:00,60.9,30.1,30.09,SE,127,0.0,8.0,31,0.00,,---,0.00,VWS V14.01,2013-04-06 21:48:00,
2013-04-06 17:53:00,60.5,29.7,30.09,East,84,0.0,5.0,31,0.00,,---,0.00,VWS V14.01,2013-04-06 21:53:00,
2013-04-06 17:58:00,60.5,31.3,30.09,East,84,0.0,5.0,33,0.00,,---,0.00,VWS V14.01,2013-04-06 21:58:00,
2013-04-06 18:03:00,60.5,29.7,30.09,East,87,0.0,1.0,31,0.00,,---,0.00,VWS V14.01,2013-04-06 22:03:00,
2013-04-06 18:08:00,60.4,29.6,30.09,SE,144,0.0,6.0,31,0.00,,---,0.00,VWS V14.01,2013-04-06 22:08:00,
2013-04-06 18:13:00,60.2,29.5,30.09,ESE,106,0.0,0.0,31,0.00,,---,0.00,VWS V14.01,2013-04-06 22:13:00,
2013-04-06 18:18:00,60.1,29.4,30.10,East,90,0.0,4.0,31,0.00,,---,0.00,VWS V14.01,2013-04-06 22:18:00,
2013-04-06 18:23:00,60.1,29.4,30.10,East,90,0.0,0.0,31,0.00,,---,0.00,VWS V14.01,2013-04-06 22:23:00,
2013-04-06 18:28:00,59.9,29.2,30.10,East,90,0.0,4.0,31,0.00,,---,0.00,VWS V14.01,2013-04-06 22:28:00,
2013-04-06 18:33:00,59.9,29.2,30.10,East,90,0.0,0.0,31,0.00,,---,0.00,VWS V14.01,2013-04-06 22:33:00,
2013-04-06 18:38:00,59.8,29.9,30.10,East,90,0.0,0.0,32,0.00,,---,0.00,VWS V14.01,2013-04-06 22:38:00,
2013-04-06 18:43:00,59.8,29.9,30.10,ENE,70,0.0,0.0,32,0.00,,---,0.00,VWS V14.01,2013-04-06 22:43:00,
2013-04-06 18:48:00,59.6,29.7,30.10,SE,141,0.0,6.0,32,0.00,,---,0.00,VWS V14.01,2013-04-06 22:48:00,
2013-04-06 18:53:00,59.3,29.5,30.10,SE,138,0.0,0.0,32,0.00,,---,0.00,VWS V14.01,2013-04-06 22:53:00,
2013-04-06 18:58:00,59.3,30.2,30.10,SE,138,0.0,0.0,33,0.00,,---,0.00,VWS V14.01,2013-04-06 22:58:00,
2013-04-06 19:03:00,59.0,30.0,30.10,SE,138,0.0,0.0,33,0.00,,---,0.00,VWS V14.01,2013-04-06 23:03:00,
2013-04-06 19:08:00,58.9,29.9,30.10,SE,138,0.0,0.0,33,0.00,,---,0.00,VWS V14.01,2013-04-06 23:08:00,
2013-04-06 19:13:00,58.9,29.9,30.10,SE,138,0.0,0.0,33,0.00,,---,0.00,VWS V14.01,2013-04-06 23:13:00,
2013-04-06 19:18:00,58.7,30.4,30.11,SE,138,0.0,0.0,34,0.00,,---,0.00,VWS V14.01,2013-04-06 23:18:00,
2013-04-06 19:23:00,58.6,30.3,30.11,SE,138,0.0,0.0,34,0.00,,---,0.00,VWS V14.01,2013-04-06 23:23:00,
2013-04-06 19:28:00,58.4,29.4,30.11,SE,138,0.0,0.0,33,0.00,,---,0.00,VWS V14.01,2013-04-06 23:28:00,
2013-04-06 19:33:00,58.4,30.9,30.10,SE,138,0.0,0.0,35,0.00,,---,0.00,VWS V14.01,2013-04-06 23:33:00,
2013-04-06 19:38:00,58.3,32.2,30.10,SE,138,0.0,0.0,37,0.00,,---,0.00,VWS V14.01,2013-04-06 23:38:00,
2013-04-06 19:43:00,58.1,31.3,30.10,SE,138,0.0,0.0,36,0.00,,---,0.00,VWS V14.01,2013-04-06 23:43:00,
2013-04-06 19:48:00,57.8,30.4,30.11,SE,138,0.0,0.0,35,0.00,,---,0.00,VWS V14.01,2013-04-06 23:48:00,
2013-04-06 19:53:00,57.6,30.2,30.11,SE,138,0.0,0.0,35,0.00,,---,0.00,VWS V14.01,2013-04-06 23:53:00,
2013-04-06 19:58:00,57.3,31.9,30.11,SE,137,0.0,0.0,38,0.00,,---,0.00,VWS V14.01,2013-04-06 23:58:00,
2013-04-06 20:03:00,57.0,33.5,30.11,SE,137,0.0,0.0,41,0.00,,---,0.00,VWS V14.01,2013-04-07 00:03:00,
2013-04-06 20:08:00,56.9,33.5,30.11,SE,137,0.0,0.0,41,0.00,,---,0.00,VWS V14.01,2013-04-07 00:08:00,
2013-04-06 20:13:00,56.6,32.6,30.11,SE,137,0.0,0.0,40,0.00,,---,0.00,VWS V14.01,2013-04-07 00:13:00,
2013-04-06 20:18:00,56.2,32.8,30.10,SE,137,0.0,0.0,41,0.00,,---,0.00,VWS V14.01,2013-04-07 00:18:00,
2013-04-06 20:23:00,56.0,32.7,30.10,SE,137,0.0,0.0,41,0.00,,---,0.00,VWS V14.01,2013-04-07 00:23:00,
2013-04-06 20:28:00,55.6,34.0,30.10,SE,137,0.0,0.0,44,0.00,,---,0.00,VWS V14.01,2013-04-07 00:28:00,
2013-04-06 20:33:00,55.1,36.8,30.10,SE,137,0.0,0.0,50,0.00,,---,0.00,VWS V14.01,2013-04-07 00:33:00,
2013-04-06 20:38:00,54.4,35.7,30.10,SE,137,0.0,0.0,49,0.00,,---,0.00,VWS V14.01,2013-04-07 00:38:00,
2013-04-06 20:43:00,53.6,36.4,30.10,SE,128,0.0,0.0,52,0.00,,---,0.00,VWS V14.01,2013-04-07 00:43:00,
2013-04-06 20:48:00,53.2,37.0,30.11,SE,137,0.0,0.0,54,0.00,,---,0.00,VWS V14.01,2013-04-07 00:48:00,
2013-04-06 20:53:00,52.6,34.0,30.11,SE,137,0.0,0.0,49,0.00,,---,0.00,VWS V14.01,2013-04-07 00:53:00,
2013-04-06 20:58:00,52.2,34.1,30.11,SE,137,0.0,0.0,50,0.00,,---,0.00,VWS V14.01,2013-04-07 00:58:00,
2013-04-06 21:03:00,51.9,34.4,30.12,SE,137,0.0,0.0,51,0.00,,---,0.00,VWS V14.01,2013-04-07 01:03:00,
2013-04-06 21:08:00,51.4,34.4,30.12,SE,137,0.0,0.0,52,0.00,,---,0.00,VWS V14.01,2013-04-07 01:08:00,
2013-04-06 21:13:00,51.0,34.5,30.12,SE,137,0.0,0.0,53,0.00,,---,0.00,VWS V14.01,2013-04-07 01:13:00,
2013-04-06 21:18:00,50.7,34.2,30.09,SE,137,0.0,0.0,53,0.00,,---,0.00,VWS V14.01,2013-04-07 01:18:00,
2013-04-06 21:23:00,50.2,34.7,30.09,SE,137,0.0,0.0,55,0.00,,---,0.00,VWS V14.01,2013-04-07 01:23:00,
2013-04-06 21:29:00,49.8,34.3,30.09,SE,137,0.0,0.0,55,0.00,,---,0.00,VWS V14.01,2013-04-07 01:29:00,
2013-04-06 21:34:00,49.5,34.5,30.09,SE,137,0.0,0.0,56,0.00,,---,0.00,VWS V14.01,2013-04-07 01:34:00,
2013-04-06 21:39:00,49.2,34.2,30.09,SE,137,0.0,0.0,56,0.00,,---,0.00,VWS V14.01,2013-04-07 01:39:00,
2013-04-06 21:44:00,48.9,33.9,30.09,SE,137,0.0,0.0,56,0.00,,---,0.00,VWS V14.01,2013-04-07 01:44:00,
2013-04-06 21:49:00,48.6,33.6,30.09,SE,137,0.0,0.0,56,0.00,,---,0.00,VWS V14.01,2013-04-07 01:49:00,
2013-04-06 21:54:00,48.5,33.1,30.09,SE,128,0.0,0.0,55,0.00,,---,0.00,VWS V14.01,2013-04-07 01:54:00,
2013-04-06 21:59:00,48.3,32.9,30.09,SE,137,0.0,0.0,55,0.00,,---,0.00,VWS V14.01,2013-04-07 01:59:00,
2013-04-06 22:04:00,48.3,33.8,30.11,SE,137,0.0,0.0,57,0.00,,---,0.00,VWS V14.01,2013-04-07 02:04:00,
2013-04-06 22:09:00,48.3,34.2,30.11,SE,137,0.0,0.0,58,0.00,,---,0.00,VWS V14.01,2013-04-07 02:09:00,
2013-04-06 22:14:00,48.2,33.7,30.11,SE,137,0.0,0.0,57,0.00,,---,0.00,VWS V14.01,2013-04-07 02:14:00,
2013-04-06 22:19:00,48.2,33.7,30.10,SE,137,0.0,0.0,57,0.00,,---,0.00,VWS V14.01,2013-04-07 02:19:00,
2013-04-06 22:24:00,48.0,33.9,30.10,SE,137,0.0,0.0,58,0.00,,---,0.00,VWS V14.01,2013-04-07 02:24:00,
2013-04-06 22:29:00,48.0,33.5,30.10,SE,137,0.0,0.0,57,0.00,,---,0.00,VWS V14.01,2013-04-07 02:29:00,
2013-04-06 22:34:00,47.9,33.8,30.10,SE,137,0.0,0.0,58,0.00,,---,0.00,VWS V14.01,2013-04-07 02:34:00,
2013-04-06 22:39:00,47.9,33.4,30.10,SE,137,0.0,0.0,57,0.00,,---,0.00,VWS V14.01,2013-04-07 02:39:00,
2013-04-06 22:44:00,47.9,33.8,30.10,SE,137,0.0,0.0,58,0.00,,---,0.00,VWS V14.01,2013-04-07 02:44:00,
2013-04-06 22:49:00,47.9,33.0,30.10,SE,137,0.0,0.0,56,0.00,,---,0.00,VWS V14.01,2013-04-07 02:49:00,
2013-04-06 22:54:00,48.0,32.2,30.10,SE,137,0.0,0.0,54,0.00,,---,0.00,VWS V14.01,2013-04-07 02:54:00,
2013-04-06 22:57:00,47.0,33.0,30.10,SE,135,0.0,0.0,58,0.00,,---,0.00,VWS V14.01,2013-04-07 02:57:00,
2013-04-06 22:58:00,47.0,33.0,30.10,SE,135,0.0,0.0,58,0.00,,---,0.00,VWS V14.01,2013-04-07 02:58:00,
2013-04-06 22:59:00,48.2,31.9,30.10,SE,135,0.0,0.0,53,0.00,,---,0.00,VWS V14.01,2013-04-07 02:59:00,
2013-04-06 23:00:00,47.0,34.3,30.10,SE,135,0.0,0.0,61,0.00,,---,0.00,VWS V14.01,2013-04-07 03:00:00,
2013-04-06 23:01:00,47.0,34.7,30.10,SE,135,0.0,0.0,62,0.00,,---,0.00,VWS V14.01,2013-04-07 03:01:00,
2013-04-06 23:02:00,47.0,34.7,30.10,SE,135,0.0,0.0,62,0.00,,---,0.00,VWS V14.01,2013-04-07 03:02:00,
2013-04-06 23:03:00,47.0,34.7,30.10,SE,135,0.0,0.0,62,0.00,,---,0.00,VWS V14.01,2013-04-07 03:03:00,
2013-04-06 23:04:00,48.2,35.0,30.10,SE,135,0.0,0.0,60,0.00,,---,0.00,VWS V14.01,2013-04-07 03:04:00,
2013-04-06 23:09:00,48.0,33.1,30.10,SE,135,0.0,0.0,56,0.00,,---,0.00,VWS V14.01,2013-04-07 03:09:00,
2013-04-06 23:14:00,48.0,33.1,30.10,SE,135,0.0,0.0,56,0.00,,---,0.00,VWS V14.01,2013-04-07 03:14:00,
2013-04-06 23:19:00,48.0,34.4,30.10,SE,135,0.0,0.0,59,0.00,,---,0.00,VWS V14.01,2013-04-07 03:19:00,
2013-04-06 23:25:00,47.7,34.1,30.10,SE,135,0.0,0.0,59,0.00,,---,0.00,VWS V14.01,2013-04-07 03:25:00,
2013-04-06 23:30:00,47.6,33.6,30.10,SE,135,0.0,0.0,58,0.00,,---,0.00,VWS V14.01,2013-04-07 03:30:00,
2013-04-06 23:35:00,47.4,34.2,30.09,SE,135,0.0,0.0,60,0.00,,---,0.00,VWS V14.01,2013-04-07 03:35:00,
2013-04-06 23:40:00,47.3,33.7,30.09,SE,135,0.0,0.0,59,0.00,,---,0.00,VWS V14.01,2013-04-07 03:40:00,
2013-04-06 23:45:00,47.1,33.1,30.09,SE,135,0.0,0.0,58,0.00,,---,0.00,VWS V14.01,2013-04-07 03:45:00,
2013-04-06 23:50:00,47.1,33.5,30.10,SE,135,0.0,0.0,59,0.00,,---,0.00,VWS V14.01,2013-04-07 03:50:00,
2013-04-06 23:55:00,47.0,33.4,30.10,SE,135,0.0,0.0,59,0.00,,---,0.00,VWS V14.01,2013-04-07 03:55:00,